sat.trackr.live / text

‹ back to catalog

STARLINK-30873

NORAD 58249 · 2023-171V

PAYLOAD ACTIVE UNKNOWN

§ Identity

Operator
Country
US
Launch date
2023-11-08
Launch site
AFETR
Launch vehicle
Mass (kg)
RCS (m²)

Purposes: comms

External: N2YO · Heavens-Above · Gunter

§ Orbital elements

Epoch: 2026-09-19T17:58:05.761920Z

Period
94.27 min
Inclination
43.0044°
Eccentricity
0.0001547
Mean motion
15.27575180 rev/d
Perigee alt
482.0 km
Apogee alt
484.1 km
Semi-major
6,861.2 km
B*
1.5742e-5
RAAN
269.2654°
Arg perigee
273.3793°
Mean anomaly
86.6882°
Rev number
15,941

§ Raw data

STARLINK-308731 58249U 23171V   26262.74867780  .00000171  00000+0  15742-4 0  99982 58249  43.0044 269.2654 0001547 273.3793  86.6882 15.27575180159419

JSON: /api/v1/satellites/58249 · /tle

For live sub-satellite position, see the globe view (requires WebGL).

§ Visibility from observer

Set your observer location to see the next 7 days of passes ≥ 10°. The values pass through the URL so the page stays shareable.

No JS? Fill the form by hand. The geolocation button needs JavaScript.